Date,TemperatureHighF,TemperatureAvgF,TemperatureLowF,DewpointHighF,DewpointAvgF,DewpointLowF,HumidityHigh,HumidityAvg,HumidityLow,PressureMaxIn,PressureMinIn,WindSpeedMaxMPH,WindSpeedAvgMPH,GustSpeedMaxMPH,PrecipitationSumIn
2013-2-1,31,28,23,22,12,7,78,51,38,30.28,29.85,12,4,0,0.00
2013-2-2,32,25,18,22,11,6,91,57,36,30.34,30.07,11,3,0,0.00
2013-2-3,32,26,21,25,22,19,95,86,70,30.07,29.81,5,1,0,0.04
2013-2-4,30,26,22,24,15,11,93,64,46,30.03,29.86,13,4,0,0.00
2013-2-5,33,31,27,32,29,22,96,92,83,29.98,29.90,4,0,0,0.01
2013-2-6,40,33,26,31,26,19,97,75,51,30.37,29.92,12,2,0,0.01
2013-2-7,35,28,21,32,20,15,89,74,58,30.51,30.30,6,1,0,0.00
2013-2-8,42,37,30,41,36,29,98,94,87,30.30,29.63,11,4,0,0.95
2013-2-9,34,29,22,30,20,9,98,74,49,30.36,29.76,15,4,0,0.13
2013-2-10,41,27,13,25,14,9,88,63,30,30.50,30.34,7,1,0,0.06
2013-2-11,54,45,31,54,44,26,100,95,81,30.36,29.66,11,3,0,0.28
2013-2-12,47,41,30,43,29,26,94,64,49,29.99,29.76,14,4,0,0.00
2013-2-13,43,34,24,32,28,23,97,80,56,29.98,29.69,5,1,0,0.02
2013-2-14,48,37,32,36,33,31,99,87,54,30.04,29.71,5,2,0,0.15
2013-2-15,58,43,30,39,35,29,98,75,40,30.05,29.92,8,2,0,0.01
2013-2-16,44,37,32,35,30,19,93,76,57,29.97,29.74,5,2,0,0.00
2013-2-17,33,28,20,18,8,2,59,44,34,30.05,29.69,18,6,0,0.00
2013-2-18,36,26,18,15,8,2,59,47,34,30.29,30.06,14,4,0,0.00
2013-2-19,52,39,26,46,32,15,98,77,51,30.24,29.70,17,3,0,0.29
2013-2-20,38,31,26,29,16,11,70,55,44,30.04,29.77,17,6,0,0.00
2013-2-21,36,29,24,17,15,12,67,57,45,30.29,30.02,13,5,0,0.00
2013-2-22,37,31,23,35,25,16,94,77,67,30.41,30.27,7,1,0,0.01
2013-2-23,46,41,35,46,41,34,99,98,94,30.27,29.79,7,2,0,0.40
2013-2-24,48,40,32,41,34,23,99,81,58,30.01,29.76,15,4,0,0.01
2013-2-25,44,36,28,31,27,23,87,70,54,30.24,30.01,5,1,0,0.00
2013-2-26,45,36,26,39,32,24,97,85,65,30.28,29.84,18,4,0,0.28
2013-2-27,53,46,40,52,44,39,100,91,70,29.84,29.50,17,4,0,0.46
2013-2-28,49,43,37,41,36,29,93,75,59,29.65,29.57,7,2,0,0.01